When you browse on this site, cookies collect data to enhance your experience and personalize the content and advertising you see.
Visit our Privacy Policy to learn more. By continuing to use the site, you agree to this use of cookies and data.
  • In Austria
  • List of Countries
  • For 7 days
  • Water Temperature
  • Satellite Maps
  • Weather Map
  • News
  • Weather Widgets
  • user-avatar
    Login

    Hourly Weather Canillo

    Today, 27 June, Thursday

    Time Temperature Precipitation Wind Pressure Humidity
    00:00 +19°C° 0 mm 2 mps 625 mmHg 31%
    01:00 +18°C° 0 mm 2 mps 625 mmHg 30%
    02:00 +18°C° 0 mm 2 mps 625 mmHg 28%
    03:00 +18°C° 0 mm 2 mps 624 mmHg 26%
    04:00 +19°C° 0 mm 2 mps 625 mmHg 30%
    05:00 +20°C° 0 mm 2 mps 625 mmHg 33%
    06:00 +20°C° 0 mm 2 mps 626 mmHg 36%
    07:00 +24°C° 0 mm 1 mps 627 mmHg 31%
    08:00 +27°C° 0 mm 1 mps 628 mmHg 27%
    09:00 +30°C° 0 mm 1 mps 629 mmHg 22%
    10:00 +30°C° 0 mm 1 mps 629 mmHg 21%
    11:00 +31°C° 0 mm 2 mps 629 mmHg 20%
    12:00 +32°C° 0 mm 2 mps 629 mmHg 18%
    13:00 +31°C° 0 mm 2 mps 629 mmHg 20%
    14:00 +31°C° 0 mm 1 mps 628 mmHg 22%
    15:00 +31°C° 0 mm 1 mps 628 mmHg 23%
    16:00 +29°C° 0 mm 1 mps 627 mmHg 30%
    17:00 +28°C° 0 mm 1 mps 626 mmHg 38%
    18:00 +27°C° 0 mm 1 mps 626 mmHg 45%
    19:00 +25°C° 0 mm 1 mps 625 mmHg 44%
    20:00 +23°C° 0 mm 1 mps 625 mmHg 44%
    21:00 +20°C° 0 mm 1 mps 624 mmHg 43%
    22:00 +19°C° 0 mm 2 mps 624 mmHg 42%
    23:00 +19°C° 0 mm 2 mps 624 mmHg 41%

    Tomorrow, 28 June, Friday

    Time Temperature Precipitation Wind Pressure Humidity
    00:00 +19°C° 0 mm 2 mps 623 mmHg 40%
    01:00 +19°C° 0 mm 2 mps 623 mmHg 36%
    02:00 +19°C° 0 mm 2 mps 623 mmHg 32%
    03:00 +18°C° 0 mm 2 mps 623 mmHg 28%
    04:00 +19°C° 0 mm 2 mps 623 mmHg 30%
    05:00 +19°C° 0 mm 2 mps 623 mmHg 32%
    06:00 +20°C° 0 mm 2 mps 623 mmHg 34%
    07:00 +23°C° 0 mm 1 mps 624 mmHg 30%
    08:00 +26°C° 0 mm 1 mps 625 mmHg 26%
    09:00 +29°C° 0 mm 1 mps 626 mmHg 22%
    10:00 +29°C° 0 mm 1 mps 626 mmHg 21%
    11:00 +30°C° 0 mm 1 mps 626 mmHg 20%
    12:00 +31°C° 0 mm 2 mps 626 mmHg 20%
    13:00 +31°C° 0 mm 2 mps 626 mmHg 21%
    14:00 +31°C° 0 mm 2 mps 626 mmHg 22%
    15:00 +30°C° 0 mm 2 mps 625 mmHg 24%
    16:00 +29°C° 0 mm 2 mps 624 mmHg 33%
    17:00 +27°C° 0 mm 1 mps 624 mmHg 41%
    18:00 +26°C° 0 mm 1 mps 623 mmHg 50%
    19:00 +24°C° 0 mm 1 mps 623 mmHg 48%
    20:00 +23°C° 0 mm 1 mps 622 mmHg 45%
    21:00 +21°C° 0 mm 1 mps 622 mmHg 43%
    22:00 +21°C° 0 mm 1 mps 622 mmHg 41%
    23:00 +20°C° 0 mm 1 mps 622 mmHg 39%

    Day after tomorrow, 29 June, Saturday

    Time Temperature Precipitation Wind Pressure Humidity
    00:00 +20°C° 0 mm 1 mps 622 mmHg 37%
    01:00 +20°C° 0 mm 1 mps 621 mmHg 38%
    02:00 +20°C° 0 mm 1 mps 621 mmHg 38%
    03:00 +19°C° 0 mm 1 mps 621 mmHg 39%
    04:00 +20°C° 0 mm 1 mps 621 mmHg 41%
    05:00 +21°C° 0 mm 1 mps 622 mmHg 43%
    06:00 +22°C° 0 mm 1 mps 622 mmHg 46%
    07:00 +24°C° 0 mm 1 mps 623 mmHg 39%
    08:00 +27°C° 0 mm 1 mps 624 mmHg 33%
    09:00 +29°C° 0 mm 1 mps 625 mmHg 27%
    10:00 +29°C° 0 mm 1 mps 625 mmHg 28%
    11:00 +29°C° 0 mm 1 mps 625 mmHg 28%
    12:00 +29°C° 0 mm 1 mps 625 mmHg 29%
    13:00 +29°C° 0 mm 1 mps 625 mmHg 32%
    14:00 +28°C° 0 mm 1 mps 624 mmHg 34%
    15:00 +27°C° 0 mm 1 mps 624 mmHg 36%
    16:00 +26°C° 0 mm 1 mps 624 mmHg 42%
    17:00 +25°C° 0 mm 1 mps 623 mmHg 47%
    18:00 +25°C° 0 mm 1 mps 623 mmHg 53%
    19:00 +23°C° 0.1 mm 1 mps 623 mmHg 58%
    20:00 +21°C° 0.1 mm 1 mps 623 mmHg 62%
    21:00 +20°C° 0.1 mm 1 mps 623 mmHg 67%
    22:00 +19°C° 0 mm 1 mps 623 mmHg 65%
    23:00 +19°C° 0 mm 1 mps 623 mmHg 63%

    30 June, Sunday

    Time Temperature Precipitation Wind Pressure Humidity
    00:00 +18°C° 0 mm 1 mps 622 mmHg 61%
    01:00 +18°C° 0 mm 1 mps 622 mmHg 57%
    02:00 +18°C° 0 mm 1 mps 622 mmHg 53%
    03:00 +18°C° 0 mm 1 mps 622 mmHg 49%
    04:00 +19°C° 0 mm 1 mps 623 mmHg 51%
    05:00 +20°C° 0 mm 1 mps 623 mmHg 52%
    06:00 +21°C° 0 mm 1 mps 624 mmHg 54%
    07:00 +24°C° 0 mm 1 mps 625 mmHg 46%
    08:00 +26°C° 0 mm 1 mps 626 mmHg 38%
    09:00 +29°C° 0 mm 1 mps 627 mmHg 30%
    10:00 +29°C° 0 mm 1 mps 627 mmHg 28%
    11:00 +30°C° 0 mm 1 mps 627 mmHg 26%
    12:00 +31°C° 0 mm 2 mps 628 mmHg 24%
    13:00 +30°C° 0 mm 2 mps 627 mmHg 25%
    14:00 +30°C° 0 mm 2 mps 627 mmHg 27%
    15:00 +30°C° 0 mm 1 mps 626 mmHg 29%
    16:00 +28°C° 0.1 mm 2 mps 626 mmHg 39%
    17:00 +26°C° 0.1 mm 2 mps 625 mmHg 50%
    18:00 +24°C° 0.1 mm 2 mps 624 mmHg 60%
    19:00 +21°C° 0.1 mm 2 mps 624 mmHg 61%
    20:00 +19°C° 0.1 mm 2 mps 623 mmHg 62%
    21:00 +17°C° 0.1 mm 2 mps 623 mmHg 63%
    22:00 +18°C° 0 mm 2 mps 623 mmHg 59%
    23:00 +18°C° 0 mm 2 mps 623 mmHg 55%

    1 July, Monday

    Time Temperature Precipitation Wind Pressure Humidity
    00:00 +18°C° 0 mm 2 mps 623 mmHg 50%
    01:00 +19°C° 0 mm 1 mps 623 mmHg 49%
    02:00 +18°C° 0 mm 1 mps 623 mmHg 48%
    03:00 +18°C° 0 mm 1 mps 622 mmHg 47%
    04:00 +19°C° 0 mm 1 mps 623 mmHg 49%
    05:00 +20°C° 0 mm 1 mps 623 mmHg 51%
    06:00 +21°C° 0 mm 1 mps 624 mmHg 53%
    07:00 +23°C° 0 mm 1 mps 625 mmHg 48%
    08:00 +25°C° 0 mm 1 mps 625 mmHg 42%
    09:00 +27°C° 0 mm 1 mps 626 mmHg 36%
    10:00 +27°C° 0 mm 2 mps 626 mmHg 35%
    11:00 +28°C° 0 mm 2 mps 626 mmHg 35%
    12:00 +29°C° 0 mm 2 mps 626 mmHg 34%
    13:00 +26°C° 1.2 mm 2 mps 625 mmHg 44%
    14:00 +24°C° 1.2 mm 2 mps 624 mmHg 55%
    15:00 +21°C° 1.2 mm 2 mps 623 mmHg 66%
    16:00 +19°C° 1.9 mm 2 mps 622 mmHg 73%
    17:00 +18°C° 1.9 mm 2 mps 622 mmHg 79%
    18:00 +16°C° 1.9 mm 3 mps 621 mmHg 86%
    19:00 +16°C° 0.3 mm 2 mps 622 mmHg 84%
    20:00 +15°C° 0.3 mm 2 mps 622 mmHg 83%
    21:00 +15°C° 0.3 mm 1 mps 622 mmHg 81%
    22:00 +15°C° 0.1 mm 1 mps 622 mmHg 82%
    23:00 +14°C° 0.1 mm 1 mps 622 mmHg 84%

    2 July, Tuesday

    Time Temperature Precipitation Wind Pressure Humidity
    00:00 +14°C° 0.1 mm 1 mps 622 mmHg 85%
    01:00 +14°C° 0 mm 1 mps 621 mmHg 85%
    02:00 +14°C° 0 mm 1 mps 621 mmHg 84%
    03:00 +14°C° 0 mm 1 mps 621 mmHg 83%
    04:00 +15°C° 0 mm 1 mps 621 mmHg 82%
    05:00 +16°C° 0 mm 1 mps 622 mmHg 81%
    06:00 +18°C° 0 mm 1 mps 622 mmHg 79%
    07:00 +19°C° 0.1 mm 1 mps 623 mmHg 71%
    08:00 +21°C° 0.1 mm 1 mps 624 mmHg 64%
    09:00 +23°C° 0.1 mm 1 mps 624 mmHg 56%
    10:00 +24°C° 0.6 mm 1 mps 624 mmHg 54%
    11:00 +24°C° 0.6 mm 2 mps 624 mmHg 52%
    12:00 +25°C° 0.6 mm 2 mps 624 mmHg 50%
    13:00 +24°C° 1.4 mm 2 mps 624 mmHg 53%
    14:00 +24°C° 1.4 mm 1 mps 623 mmHg 56%
    15:00 +23°C° 1.4 mm 1 mps 623 mmHg 58%
    16:00 +23°C° 0.6 mm 1 mps 622 mmHg 61%
    17:00 +22°C° 0.6 mm 1 mps 622 mmHg 65%
    18:00 +21°C° 0.6 mm 1 mps 622 mmHg 68%
    19:00 +19°C° 0.3 mm 1 mps 621 mmHg 73%
    20:00 +16°C° 0.3 mm 1 mps 621 mmHg 78%
    21:00 +13°C° 0.3 mm 0 mps 620 mmHg 83%
    22:00 +14°C° 0.8 mm 1 mps 620 mmHg 83%
    23:00 +14°C° 0.8 mm 1 mps 620 mmHg 84%
    Show more